ハートレー第2彗星

103P/Hartley 2 (1997)

English version
Home page
Total 6,336 html files since Dec. 4, 1995
Updated on March 17, 2006

---------------------------------------------------------------------

・ プロフィール

・ 軌道要素

   The following improved orbital elements by Kenji Muraoka, 
  are from 491 observations 1986 to 1998, including 9 Planets, 
  Moon and 5 minor planets perturbations and non-gravitational 
  effect of style II.  The mean residual is +/- 0.77 arc seconds.

      Epoch  =  1997 Dec. 18.0  TT       JDT = 2450800.5
          T  =  1997 Dec. 22.01730       +/- 0.00082 (m.e.) TT
       Peri. =  180.72204                +/- 0.00015
       Node  =  219.95453                +/- 0.00005   (2000.0)
       Incl. =   13.61888                +/- 0.00001
          q  =    1.0317219              +/- 0.0000002 AU
          e  =    0.7003747              +/- 0.0000003
          a  =    3.4433739              +/- 0.0000012 AU
          n  =    0.15425093             +/- 0.00000008
          P  =    6.390                  +/- 0.0000033  years
         A1  =   +0.161                  +/- 0.013
         A2  =   +0.04189                +/- 0.00049

・ 星図

・ 1997年 4月 2日〜1998年 2月16日
・ 1998年 1月27日〜1998年 8月15日

・ 光度変化

        m1 =  8.2 + 5 logΔ + 20.0 log r(t - 20)  [   ,120]  (              〜1998年 4月21日)
        m1 = 10.0 + 5 logΔ + 10.0 log r          [120,   ]  (1998年 4月21日〜              )

---------------------------------------------------------------------

軌道要素は村岡健治氏の計算によるものです。
星図は StellaNavigator Ver.2.0 for Windows (アストロアーツ 編著 / アスキー出版局刊) で作成したものです。
光度グラフはComet for Windowsで作成したものです。

---------------------------------------------------------------------

Copyright(C) 1995-2008 Seiichi Yoshida (comet@aerith.net). All rights reserved.